This demonstration page uses our WeatherBlox Daily Observations layout. Learn more.

Left ArrowRight Arrow

Hourly Observations for September 22, 2018

Temp ( °F °C ) Dew Point ( °F °C ) Humidity (%) Winds ( mph kmh ) Pressure ( in mb ) Visibility ( mi km ) Precip ( " mm )
12:53 am 00:53 Cloudy 66 18.9 59 15 78 78 NE 18 30 30.10 1019 10 16 0.00 0.00
1:53 am 01:53 Cloudy 66 18.9 58 14.4 75 75 NNE 14 22 30.09 1019 10 16 0.00 0.00
2:53 am 02:53 Cloudy 66 18.9 57 13.9 73 73 NNE 17 28 30.09 1019 10 16 0.00 0.00
3:53 am 03:53 Cloudy 65 18.3 57 13.9 76 76 N 12 19 30.07 1018 10 16 0.00 0.00
4:53 am 04:53 Cloudy 64 17.8 55 12.8 73 73 NNE 15 24 30.07 1018 10 16 0.00 0.00
5:53 am 05:53 Cloudy 64 17.8 55 12.8 73 73 N 14 22 30.08 1019 10 16 0.00 0.00
6:53 am 06:53 Mostly Cloudy 63 17.2 55 12.8 76 76 N 14 22 30.09 1019 10 16 0.00 0.00
7:18 am 07:18 Partly Cloudy 62 16.7 54 12.2 75 75 N 12 19 30.12 1020 10 16 0.00 0.00
7:25 am 07:25 Mostly Cloudy 62 16.7 54 12.2 75 75 N 12 19 30.12 1020 10 16 0.00 0.00
7:53 am 07:53 Cloudy 62 16.7 53 11.7 73 73 N 12 19 30.10 1019 10 16 0.00 0.00
8:39 am 08:39 Mostly Cloudy 64 17.8 53 11.7 68 68 N 12 19 30.12 1020 10 16 0.00 0.00
8:53 am 08:53 Mostly Cloudy 64 17.8 52 11.1 65 65 N 14 22 30.12 1020 10 16 0.00 0.00
9:53 am 09:53 Cloudy 66 18.9 51 10.6 59 59 NNE 17 28 30.13 1020 10 16 0.00 0.00
10:53 am 10:53 Cloudy 69 20.6 51 10.6 53 53 NE 13 20 30.12 1020 10 16 0.00 0.00
11:53 am 11:53 Sunny 71 21.7 52 11.1 51 51 NNW 9 15 30.11 1020 10 16 0.00 0.00
12:53 pm 12:53 Cloudy 74 23.3 52 11.1 46 46 NE 10 17 30.09 1019 10 16 0.00 0.00
1:53 pm 13:53 Partly Cloudy 77 25 52 11.1 42 42 ENE 7 11 30.05 1018 10 16 0.00 0.00
2:53 pm 14:53 Mostly Sunny 80 26.7 51 10.6 37 37 NNE 13 20 30.01 1016 10 16 0.00 0.00
3:53 pm 15:53 Mostly Sunny 80 26.7 49 9.4 34 34 NNE 10 17 29.98 1015 10 16 0.00 0.00
4:53 pm 16:53 Sunny 81 27.2 49 9.4 33 33 ENE 7 11 29.96 1015 10 16 0.00 0.00
5:53 pm 17:53 Sunny 81 27.2 45 7.2 28 28 NE 13 20 29.96 1014 10 16 0.00 0.00
6:53 pm 18:53 Sunny 79 26.1 45 7.2 30 30 ENE 12 19 29.96 1015 10 16 0.00 0.00
7:53 pm 19:53 Clear 73 22.8 47 8.3 40 40 E 8 13 29.98 1015 10 16 0.00 0.00
8:53 pm 20:53 Clear 68 20 50 10 53 53 E 7 11 29.99 1016 10 16 0.00 0.00
9:53 pm 21:53 Clear 65 18.3 51 10.6 61 61 E 5 7 30.01 1016 10 16 0.00 0.00
10:53 pm 22:53 Clear 64 17.8 51 10.6 63 63 NE 3 6 30.01 1016 10 16 0.00 0.00
11:53 pm 23:53 Clear 62 16.7 51 10.6 67 67 NNE 6 9 30.01 1016 10 16 0.00 0.00

Powered by AerisWeather